DW4273 Weather Reports


Display with metric or nautical units.
time (UTC)temp
F
wind
direction
speed
MPH
gust
MPH
rain 1hr
in
rain 24hr
in
rain mn
in
humidity
%
barometer
mb
20260901071016 74 180 3.0 4.0 0.00 0.00 0.00 87 1014.4
20260901070057 74 203 3.0 5.0 0.00 0.00 0.00 87 1014.6
20260901065037 74 203 3.0 5.0 0.00 0.00 0.00 87 1014.6
20260901064016 74 203 4.0 6.0 0.00 0.00 0.00 87 1014.5
20260901063017 74 180 3.0 5.0 0.00 0.00 0.00 87 1014.6
20260901062017 74 158 1.0 3.0 0.00 0.00 0.00 86 1014.6
20260901061037 74 180 1.0 4.0 0.00 0.00 0.00 87 1014.5
20260901060016 74 180 2.0 4.0 0.00 0.00 0.00 86 1014.6
20260901055037 74 180 3.0 6.0 0.00 0.00 0.00 86 1014.7
20260901054037 74 180 4.0 6.0 0.00 0.00 0.00 86 1014.9
20260901053037 74 203 3.0 4.0 0.00 0.00 0.00 86 1014.8
20260901052017 74 180 2.0 5.0 0.00 0.00 0.00 87 1014.7
20260901051017 74 158 3.0 7.0 0.00 0.00 0.00 87 1014.7
20260901050017 74 180 3.0 5.0 0.00 0.00 0.00 87 1014.7
20260901045017 74 180 2.0 4.0 0.00 0.00 0.00 87 1014.7
20260901044017 74 180 1.0 4.0 0.00 0.00 0.00 87 1014.9
20260901043037 74 0.0 2.0 0.00 0.00 0.00 87 1014.9
20260901042017 73 0.0 2.0 0.00 0.00 0.00 87 1014.9
20260901041057 73 135 1.0 5.0 0.00 0.00 0.00 87 1014.7
20260901040037 73 135 1.0 2.0 0.00 0.00 0.00 86 1014.8
20260901035016 74 0.0 0.0 0.00 0.00 0.00 85 1015.0
20260901034016 74 0.0 0.0 0.00 0.00 0.00 85 1015.0
20260901033016 75 0.0 1.0 0.00 0.00 0.00 84 1015.0
20260901032016 75 0.0 0.0 0.00 0.00 0.00 84 1014.7
20260901031016 75 0.0 1.0 0.00 0.00 0.00 83 1014.4
20260901030016 75 0.0 2.0 0.00 0.00 0.00 83 1014.3
20260901025036 75 0.0 0.0 0.00 0.00 0.00 83 1014.4
20260901024016 76 113 1.0 3.0 0.00 0.00 0.00 83 1014.2
20260901023016 76 90 2.0 3.0 0.00 0.00 0.00 83 1014.3
20260901022016 76 113 2.0 4.0 0.00 0.00 0.00 83 1014.4
20260901021037 76 90 2.0 3.0 0.00 0.00 0.00 82 1014.6
20260901020016 76 90 1.0 2.0 0.00 0.00 0.00 81 1014.7
20260901015017 77 90 2.0 3.0 0.00 0.00 0.00 80 1014.8
20260901014016 78 0.0 3.0 0.00 0.00 0.00 79 1014.6
20260901013016 78 90 4.0 7.0 0.00 0.00 0.00 79 1013.7
20260901012016 78 203 1.0 4.0 0.00 0.00 0.00 79 1014.1
20260901011526 78 180 3.0 4.0 0.00 0.00 0.00 79 1014.0
20260901011057 78 180 3.0 5.0 0.00 0.00 0.00 79 1013.8
20260901010016 78 158 2.0 5.0 0.00 0.00 0.00 80 1013.9
20260901005016 78 180 4.0 7.0 0.00 0.00 0.00 79 1013.7
20260901004036 78 203 3.0 4.0 0.00 0.00 0.00 80 1014.5
20260901003057 78 225 3.0 4.0 0.00 0.00 0.00 79 1014.8
20260901002016 78 225 4.0 7.0 0.00 0.00 0.00 78 1014.9
20260901001016 79 225 4.0 6.0 0.00 0.00 0.00 77 1015.0
20260901000016 80 248 2.0 3.0 0.00 0.00 0.00 76 1015.2
20260831235036 80 248 1.0 3.0 0.00 0.00 0.00 73 1015.6
20260831234016 81 270 1.0 2.0 0.00 0.00 0.00 72 1015.5
20260831233017 81 270 1.0 3.0 0.00 0.00 0.00 71 1015.4
20260831232016 81 248 1.0 3.0 0.00 0.00 0.00 71 1015.5
20260831231036 82 248 4.0 6.0 0.00 0.00 0.00 71 1015.4
20260831230036 82 248 5.0 7.0 0.00 0.00 0.00 70 1015.6
20260831225016 83 248 5.0 9.0 0.00 0.00 0.00 69 1015.5
20260831224016 84 248 4.0 9.0 0.00 0.00 0.00 69 1015.5
20260831223037 84 248 3.0 5.0 0.00 0.00 0.00 69 1015.5
20260831222017 85 248 2.0 4.0 0.00 0.00 0.00 67 1015.3
20260831221016 84 203 3.0 5.0 0.00 0.00 0.00 66 1015.2
20260831220017 84 203 2.0 5.0 0.00 0.00 0.00 66 1015.0
20260831215037 84 225 3.0 5.0 0.00 0.00 0.00 67 1015.0
20260831214017 85 225 4.0 5.0 0.00 0.00 0.00 67 1015.2
20260831213016 84 248 3.0 5.0 0.00 0.00 0.00 68 1015.4
20260831212016 84 293 2.0 3.0 0.00 0.00 0.00 67 1015.4
20260831211036 84 270 1.0 3.0 0.00 0.00 0.00 68 1015.4
20260831210017 84 248 2.0 4.0 0.00 0.00 0.00 67 1015.5
20260831205016 84 270 2.0 4.0 0.00 0.00 0.00 66 1015.5
20260831204016 84 293 1.0 3.0 0.00 0.00 0.00 67 1015.4
20260831203016 83 270 1.0 2.0 0.00 0.00 0.00 67 1015.3
20260831202017 83 0.0 0.0 0.00 0.00 0.00 68 1015.1
20260831201016 83 248 2.0 2.0 0.00 0.00 0.00 66 1015.1
20260831200017 83 158 1.0 2.0 0.00 0.00 0.00 67 1015.1
20260831195057 83 180 3.0 5.0 0.00 0.00 0.00 64 1015.0
20260831194036 84 225 4.0 7.0 0.00 0.00 0.00 61 1015.5
20260831193016 85 248 6.0 7.0 0.00 0.00 0.00 59 1015.7
20260831192016 86 248 6.0 8.0 0.00 0.00 0.00 61 1015.8
20260831191016 86 248 5.0 10.0 0.00 0.00 0.00 60 1015.9
20260831190017 87 248 6.0 11.0 0.00 0.00 0.00 56 1016.1
20260831185016 87 248 8.0 13.0 0.00 0.00 0.00 55 1016.1
20260831184117 86 270 7.0 13.0 0.00 0.00 0.00 58 1016.3
20260831183017 85 270 8.0 13.0 0.00 0.00 0.00 60 1016.5
20260831182016 87 248 12.0 20.0 0.00 0.00 0.00 59 1016.6
20260831181017 87 248 10.0 16.0 0.00 0.00 0.00 60 1016.6
20260831180017 86 270 6.0 11.0 0.00 0.00 0.00 60 1016.7
20260831175017 86 270 5.0 10.0 0.00 0.00 0.00 60 1016.7
20260831174036 86 248 9.0 16.0 0.00 0.00 0.00 60 1016.7
20260831173037 85 248 8.0 14.0 0.00 0.00 0.00 63 1016.8
20260831172016 85 248 9.0 12.0 0.00 0.00 0.00 63 1016.9
20260831171017 85 248 8.0 11.0 0.00 0.00 0.00 62 1017.0
20260831170057 85 248 9.0 12.0 0.00 0.00 0.00 63 1016.9
20260831165036 84 248 7.0 10.0 0.00 0.00 0.00 65 1017.0
20260831164017 85 225 8.0 11.0 0.00 0.00 0.00 63 1017.1
20260831163057 85 225 9.0 13.0 0.00 0.00 0.00 62 1017.0
20260831162017 84 225 9.0 14.0 0.00 0.00 0.00 64 1017.0
20260831161016 84 248 6.0 8.0 0.00 0.00 0.00 66 1017.1
20260831160017 84 225 8.0 11.0 0.00 0.00 0.00 65 1017.0
20260831155017 84 225 7.0 10.0 0.00 0.00 0.00 65 1017.0
20260831154017 84 225 7.0 9.0 0.00 0.00 0.00 64 1017.0
20260831153016 83 225 8.0 13.0 0.00 0.00 0.00 65 1016.9
20260831152017 82 225 5.0 8.0 0.00 0.00 0.00 67 1016.9
20260831151016 81 203 5.0 7.0 0.00 0.00 0.00 71 1016.9
20260831150017 80 225 5.0 8.0 0.00 0.00 0.00 75 1017.0
20260831145057 79 225 5.0 7.0 0.00 0.00 0.00 78 1017.0
20260831144017 77 180 4.0 7.0 0.00 0.00 0.00 82 1016.8
20260831143017 76 203 4.0 7.0 0.00 0.00 0.00 83 1016.8
20260831142017 76 203 2.0 4.0 0.00 0.00 0.00 85 1016.9
20260831141017 75 180 3.0 5.0 0.00 0.00 0.00 86 1016.9
20260831140017 74 180 3.0 5.0 0.00 0.00 0.00 88 1016.8
20260831135017 73 180 2.0 4.0 0.00 0.00 0.00 90 1016.8
20260831134017 73 180 2.0 5.0 0.00 0.00 0.00 90 1016.7
20260831133017 73 180 3.0 4.0 0.00 0.00 0.00 90 1016.9
20260831132037 72 180 2.0 3.0 0.00 0.00 0.00 91 1016.8
20260831131017 72 180 1.0 3.0 0.00 0.00 0.00 91 1016.7
20260831130017 72 0.0 2.0 0.00 0.00 0.00 91 1016.9
20260831125037 72 180 1.0 3.0 0.00 0.00 0.00 92 1016.8
20260831124057 71 0.0 1.0 0.00 0.00 0.00 91 1016.8
20260831123017 71 0.0 0.0 0.00 0.00 0.00 92 1016.8
20260831122037 70 0.0 0.0 0.00 0.00 0.00 91 1016.6
20260831121017 71 0.0 0.0 0.00 0.00 0.00 91 1016.8
20260831120017 70 0.0 0.0 0.00 0.00 0.00 90 1016.7
20260831115017 70 180 1.0 3.0 0.00 0.00 0.00 91 1016.6
20260831114017 70 0.0 1.0 0.00 0.00 0.00 90 1016.7
20260831113017 71 0.0 2.0 0.00 0.00 0.00 90 1016.8
20260831112017 71 180 2.0 5.0 0.00 0.00 0.00 90 1016.6
20260831111017 71 180 5.0 7.0 0.00 0.00 0.00 89 1016.6
20260831110017 71 0.0 0.0 0.00 0.00 0.00 89 1016.5
20260831105017 71 0.0 3.0 0.00 0.00 0.00 89 1016.3
20260831104017 71 158 1.0 4.0 0.00 0.00 0.00 89 1016.1
20260831103017 71 180 2.0 5.0 0.00 0.00 0.00 89 1016.1
20260831102017 71 180 2.0 5.0 0.00 0.00 0.00 89 1016.0
20260831101017 71 180 1.0 4.0 0.00 0.00 0.00 89 1016.0
20260831100117 71 203 2.0 4.0 0.00 0.00 0.00 89 1016.0
20260831095018 71 0.0 3.0 0.00 0.00 0.00 89 1016.0
20260831094017 71 0.0 2.0 0.00 0.00 0.00 89 1015.9
20260831093017 71 203 1.0 4.0 0.00 0.00 0.00 89 1016.0
20260831092017 71 158 1.0 4.0 0.00 0.00 0.00 89 1016.0
20260831091017 70 180 1.0 3.0 0.00 0.00 0.00 89 1016.1
20260831090017 70 0.0 2.0 0.00 0.00 0.00 89 1016.0
20260831085017 70 0.0 2.0 0.00 0.00 0.00 89 1015.9
20260831084057 70 0.0 2.0 0.00 0.00 0.00 89 1015.9
20260831083017 70 0.0 1.0 0.00 0.00 0.00 89 1015.9
20260831082017 70 0.0 2.0 0.00 0.00 0.00 88 1015.8
20260831081017 70 0.0 0.0 0.00 0.00 0.00 88 1016.0
20260831080017 70 0.0 1.0 0.00 0.00 0.00 88 1016.1
20260831075017 70 0.0 1.0 0.00 0.00 0.00 88 1016.2
20260831074017 70 0.0 3.0 0.00 0.00 0.00 88 1016.2
20260831073017 70 0.0 2.0 0.00 0.00 0.00 88 1016.3
20260831072017 70 158 1.0 2.0 0.00 0.00 0.00 88 1016.3